Weather History for St. George, UT

Change the Weather History Date:

Sunday, June 30, 2013

  Actual Average Record
Temperature  
Mean Temperature 96 °F -  
Max Temperature 113 °F 100 °F 113 °F (2013)
Min Temperature 80 °F 66 °F 52 °F (1944)
Cooling Degree Days 32    
Growing Degree Days 46 (Base 50)    
Moisture  
Dew Point 38 °F    
Average Humidity 14    
Maximum Humidity 19    
Minimum Humidity 9    
Precipitation  
Precipitation 0.00 in - - ()
Sea Level Pressure  
Sea Level Pressure 29.94 in    
Wind  
Wind Speed 6 mph (NNE)    
Max Wind Speed 22 mph    
Max Gust Speed 33 mph    
Visibility 10 miles    
Events      
Averages and records for this station are not official NWS values.
T = Trace of Precipitation, MM = Missing Value Source: NWS Daily Summary

Daily Weather History Graph

Daily Weather History Graph

Search for Another Location

Airport:

Trip Planner

Search our weather history database for the weather conditions in past years. The results will help you decide how hot, cold, wet, or windy it might be!

Date:

Astronomy

Jun. 30, 2013 Rise Set
Actual Time 6:17 AM MDT 8:58 PM MDT
Civil Twilight 5:47 AM MDT 9:29 PM MDT
Nautical Twilight 5:08 AM MDT 10:07 PM MDT
Astronomical Twilight 4:25 AM MDT 10:50 PM MDT
Moon 1:11 AM MDT (6/30) 2:23 PM MDT (6/30)
Length of Visible Light 15h 41m
Length of Day
14h 40m
Last Quarter, 45% of the Moon is Illuminated
Jun 30
Last Quarter
Jul 8
New
Jul 15
First Quarter
Jul 22
Full
Jul 29
Last Quarter

Hourly Weather History & Observations

Time (MDT) Temp. Dew Point Humidity Pressure Visibility Wind Dir Wind Speed Gust Speed Precip Events Conditions
12:15 AM 95.0 °F 35.6 °F 12% - 10.0 mi ENE 5.8 mph - N/A   Clear
12:35 AM 93.2 °F 35.6 °F 13% - 10.0 mi ESE 4.6 mph - N/A   Clear
12:55 AM 93.2 °F 35.6 °F 13% 29.90 in 10.0 mi SE 5.8 mph - N/A   Clear
1:15 AM 91.4 °F 35.6 °F 14% - 10.0 mi East 6.9 mph - N/A   Clear
1:35 AM 93.2 °F 35.6 °F 13% 29.90 in 10.0 mi NE 8.1 mph - N/A   Clear
1:55 AM 91.4 °F 35.6 °F 14% - 10.0 mi ENE 3.5 mph - N/A   Clear
2:15 AM 89.6 °F 33.8 °F 14% 29.91 in 10.0 mi East 8.1 mph - N/A   Clear
2:35 AM 89.6 °F 33.8 °F 14% 29.91 in 10.0 mi ESE 4.6 mph - N/A   Clear
2:55 AM 86.0 °F 33.8 °F 15% 29.91 in 10.0 mi East 4.6 mph - N/A   Clear
3:15 AM 86.0 °F 33.8 °F 15% 29.90 in 10.0 mi SSE 3.5 mph - N/A   Clear
3:35 AM 86.0 °F 33.8 °F 15% 29.91 in 10.0 mi ESE 5.8 mph - N/A   Clear
3:55 AM 82.4 °F 33.8 °F 17% 29.90 in 10.0 mi SE 8.1 mph - N/A   Clear
4:15 AM 82.4 °F 33.8 °F 17% 29.90 in 10.0 mi ESE 9.2 mph - N/A   Clear
4:35 AM 82.4 °F 33.8 °F 17% 29.91 in 10.0 mi ESE 6.9 mph - N/A   Clear
4:55 AM 82.4 °F 33.8 °F 17% 29.91 in 10.0 mi NW 3.5 mph - N/A   Clear
5:15 AM 82.4 °F 33.8 °F 17% 29.92 in 10.0 mi ESE 11.5 mph - N/A   Clear
5:35 AM 82.4 °F 33.8 °F 17% 29.92 in 10.0 mi ESE 11.5 mph - N/A   Clear
5:55 AM 82.4 °F 33.8 °F 17% 29.93 in 10.0 mi ESE 8.1 mph - N/A   Clear
6:15 AM 82.4 °F 33.8 °F 17% 29.94 in 10.0 mi SE 4.6 mph - N/A   Clear
6:35 AM 82.4 °F 33.8 °F 17% 29.94 in 10.0 mi South 5.8 mph - N/A   Clear
6:55 AM 80.6 °F 33.8 °F 18% 29.95 in 10.0 mi Calm Calm - N/A   Clear
7:15 AM 80.6 °F 33.8 °F 18% 29.96 in 10.0 mi SSE 4.6 mph - N/A   Clear
7:35 AM 82.4 °F 35.6 °F 19% 29.96 in 10.0 mi Calm Calm - N/A   Clear
7:55 AM 82.4 °F 35.6 °F 19% 29.97 in 10.0 mi Calm Calm - N/A   Clear
8:15 AM 82.4 °F 35.6 °F 19% 29.98 in 10.0 mi Calm Calm - N/A   Clear
8:35 AM 84.2 °F 35.6 °F 18% 29.98 in 10.0 mi Calm Calm - N/A   Clear
8:55 AM 86.0 °F 37.4 °F 18% 29.99 in 10.0 mi WNW 3.5 mph - N/A   Clear
9:15 AM 84.2 °F 37.4 °F 19% 29.99 in 10.0 mi WNW 3.5 mph - N/A   Clear
9:35 AM 87.8 °F 37.4 °F 17% 29.99 in 10.0 mi Calm Calm - N/A   Clear
9:55 AM 87.8 °F 37.4 °F 17% 29.98 in 10.0 mi WNW 3.5 mph - N/A   Clear
10:15 AM 89.6 °F 37.4 °F 16% 29.98 in 10.0 mi WNW 3.5 mph - N/A   Clear
10:35 AM 91.4 °F 39.2 °F 16% 29.97 in 10.0 mi Calm Calm - N/A   Clear
10:55 AM 93.2 °F 39.2 °F 15% - 10.0 mi WNW 3.5 mph - N/A   Clear
11:15 AM 96.8 °F 39.2 °F 14% - 10.0 mi NW 5.8 mph - N/A   Clear
11:35 AM 98.6 °F 39.2 °F 13% - 10.0 mi WNW 4.6 mph - N/A   Clear
11:55 AM 98.6 °F 41.0 °F 14% - 10.0 mi Calm Calm - N/A   Clear
12:15 PM 100.4 °F 42.8 °F 14% - 10.0 mi Calm Calm - N/A   Clear
12:35 PM 102.2 °F 42.8 °F 13% - 10.0 mi Calm Calm - N/A   Clear
12:55 PM 102.2 °F 42.8 °F 13% - 10.0 mi Calm Calm - N/A   Clear
1:35 PM 105.8 °F 41.0 °F 11% - 10.0 mi WSW 6.9 mph - N/A   Clear
1:55 PM 107.6 °F 42.8 °F 11% - 10.0 mi WSW 5.8 mph - N/A   Clear
2:15 PM 107.6 °F 42.8 °F 11% - 10.0 mi NNW 4.6 mph - N/A   Clear
2:35 PM 109.4 °F 42.8 °F 11% - 10.0 mi West 9.2 mph - N/A   Clear
2:55 PM 109.4 °F 42.8 °F 11% - 10.0 mi NNW 8.1 mph - N/A   Clear
3:15 PM 109.4 °F 42.8 °F 11% - 10.0 mi WNW 5.8 mph - N/A   Clear
3:35 PM 111.2 °F 42.8 °F 10% - 10.0 mi NNW 4.6 mph - N/A   Clear
3:55 PM 111.2 °F 42.8 °F 10% - 10.0 mi North 8.1 mph - N/A   Clear
4:15 PM 113.0 °F 44.6 °F 10% - 10.0 mi NNW 4.6 mph - N/A   Clear
4:35 PM 109.4 °F 42.8 °F 11% - 10.0 mi NNW 3.5 mph - N/A   Clear
4:55 PM 109.4 °F 42.8 °F 11% - 10.0 mi West 11.5 mph - N/A   Clear
5:15 PM 109.4 °F 41.0 °F 10% - 10.0 mi WNW 5.8 mph - N/A   Clear
5:35 PM 107.6 °F 41.0 °F 10% - 10.0 mi North 16.1 mph 29.9 mph N/A   Clear
5:55 PM 107.6 °F 39.2 °F 10% - 9.0 mi NNE 20.7 mph 27.6 mph N/A   Clear
6:15 PM 109.4 °F 39.2 °F 9% - 10.0 mi NNW 13.8 mph - N/A   Clear
6:35 PM 107.6 °F 39.2 °F 10% - 10.0 mi NNW 21.9 mph 27.6 mph N/A   Clear
6:55 PM 105.8 °F 39.2 °F 10% - 10.0 mi NNW 17.3 mph 21.9 mph N/A   Clear
7:15 PM 105.8 °F 39.2 °F 10% - 10.0 mi NNW 12.7 mph - N/A   Clear
7:35 PM 104.0 °F 39.2 °F 11% - 10.0 mi North 11.5 mph - N/A   Clear
7:55 PM 105.8 °F 39.2 °F 10% - 10.0 mi NNE 21.9 mph 33.4 mph N/A   Clear
8:15 PM 105.8 °F 39.2 °F 10% - 10.0 mi NE 10.4 mph - N/A   Clear
8:35 PM 105.8 °F 37.4 °F 10% - 10.0 mi NW 3.5 mph - N/A   Clear
8:55 PM 104.0 °F 37.4 °F 10% - 10.0 mi ESE 12.7 mph 16.1 mph N/A   Clear
9:15 PM 100.4 °F 37.4 °F 11% - 10.0 mi ESE 5.8 mph - N/A   Clear
9:35 PM 102.2 °F 37.4 °F 11% - 10.0 mi SE 11.5 mph - N/A   Clear
9:55 PM 98.6 °F 37.4 °F 12% - 10.0 mi ESE 9.2 mph - N/A   Clear
10:15 PM 98.6 °F 35.6 °F 11% - 10.0 mi ESE 6.9 mph - N/A   Clear
10:35 PM 98.6 °F 37.4 °F 12% - 10.0 mi South 5.8 mph - N/A   Clear
10:55 PM 98.6 °F 37.4 °F 12% - 10.0 mi NNE 3.5 mph - N/A   Clear
11:15 PM 96.8 °F 37.4 °F 13% - 10.0 mi Calm Calm - N/A   Clear
11:35 PM 96.8 °F 37.4 °F 13% - 10.0 mi NW 3.5 mph - N/A   Clear
11:55 PM 91.4 °F 35.6 °F 14% - 10.0 mi ENE 6.9 mph - N/A   Clear